sat.trackr.live / text

‹ back to catalog

STARLINK-37418

NORAD 68775 · 2026-086K

PAYLOAD ACTIVE UNKNOWN

§ Identity

Operator
Country
US
Launch date
2026-04-19
Launch site
AFWTR
Launch vehicle
Mass (kg)
RCS (m²)

Purposes: comms

External: N2YO · Heavens-Above · Gunter

§ Orbital elements

Epoch: 2026-09-19T21:49:48.366048Z

Period
93.91 min
Inclination
97.2854°
Eccentricity
0.0001093
Mean motion
15.33428456 rev/d
Perigee alt
464.8 km
Apogee alt
466.3 km
Semi-major
6,843.7 km
B*
5.3648e-4
RAAN
298.3335°
Arg perigee
92.5434°
Mean anomaly
267.5933°
Rev number
2,359

§ Raw data

STARLINK-374181 68775U 26086K   26262.90958757  .00017275  00000+0  53648-3 0  99932 68775  97.2854 298.3335 0001093  92.5434 267.5933 15.33428456 23598

JSON: /api/v1/satellites/68775 · /tle

For live sub-satellite position, see the globe view (requires WebGL).

§ Visibility from observer

Set your observer location to see the next 7 days of passes ≥ 10°. The values pass through the URL so the page stays shareable.

No JS? Fill the form by hand. The geolocation button needs JavaScript.